Location: Recife
(8.0585°S, 34.8848°W)
Time: 04:20:10
(UTC-03:00)

Courier 1B - Pass Details

Date: 17 April 2026
Orbit: 962 x 1209 km, 28.3° (Epoch: 14 May)

Event Time Altitude Azimuth Distance (km) Brightness Sun altitude
Rises 09:18:13 0° 236° (SW) 4,113 10.4 54.6°
Reaches altitude 10° 09:22:35 10° 215° (SW) 3,146 10.0 55.5°
Maximum altitude 09:26:57 16° 181° (S) 2,729 9.8 56.4°
Drops below altitude 10° 09:31:15 10° 146° (SSE) 3,100 10.3 57.3°
Sets 09:35:31 0° 125° (SE) 4,022 10.9 58.2°
